DELTA 1 DEB, 21461

Orbit data source: Space-Track

DELTA 1 DEB, 21461 is space debris in SSO originally from a launch on Thu, 12 Jun 1975 UTC launched from the Air Force Western Test Range (AFWTR). Debris objects in space refer to the collection of defunct objects orbiting the Earth. Examples of debris include non-operational satellites, rocket bodies, and fragments generated from explosions, collisions, or faulty payload assembly.

Loading next visibility...
Identifier
21461, 1975-052EV
Orbit
SSO
Country
Flag of USUS
Related business
Manufacturer
Unknown
Mission
Spacecraft
Bus & Motor
Unknown
Mass
Unknown
Launch date (UTC)
1975-06-12 (50 years ago)
Launch vehicle
Unknown
Launch site
Air Force Western Test Range (AFWTR)
Object type
Payload
Rocket body
Debris
Shape & HBR
Unknown shape, 0.1 m
Radar Cross Section
Small (<0.1 m²)

Expand to show TLE details & history
Last TLE update: 10 hours ago

TLE from 10 hours ago
0 DELTA 1 DEB
1 21461U 75052EV  25300.24141420  .00000154  00000-0  43210-3 0  9994
2 21461  99.7294  47.2955 0204940 240.1031 188.0381 13.20436940659953
Epoch: 2025-10-27T05:47Z
TLE epoch observation values (Epoch: 2025-10-27T05:47:38.186Z)
Latitude
65.96144°
Longitude
-97.94879°
Altitude
1,347.885 km
Speed
7.117 km/s
True Right ascension
01h 39m 13s
True Declination
65° 50' 35"
Sunlit
Object was in full shadow at epoch
Visualization orbit readout
Latitude
Unknown
Longitude
Unknown
Altitude
Unknown
Speed
Unknown
Apparent Right ascension
Unknown
Apparent Declination
Unknown
Sunlit
N/A
Visualization observer readout
Local Sidereal Time
10:53:56
Azimuth
Unknown
Elevation
Unknown
Doppler factor
Unknown
Orbital elements
Apogee altitude
1,335.297 km
Perigee altitude
1,025.488 km
Semi-major axis
7,558.529 km
Eccentricity
0.02049
Inclination
99.7294°
RAAN
47.2955°
Arg. of periapsis
240.1031°
True anomaly
187.71785°
Mean anomaly
188.0381°
Eccentric anomaly
187.87717°
Mean motion
3.30284 °/min
Orbital period
109 mins
BSTAR
0.0004321
Loading maneuver chart data...
Computing Atmospheric mass density...
Loading historical data...
Loading historical data...
Loading historical data...
Loading historical data...
Loading historical data...
Loading historical data...
Loading historical data...

Documentation

Showing up to 5 results
|